Time,TemperatureF,DewpointF,PressureIn,WindDirection,WindDirectionDegrees,WindSpeedMPH,WindSpeedGustMPH,Humidity,HourlyPrecipIn,Conditions,Clouds,dailyrainin,SolarRadiationWatts/m^2,SoftwareType,DateUTC
2013-02-21 00:00:00,26.8,14.4,29.97,WNW,291,4.0,17.0,59,0.00,,,0.00,0.0,meteohub,2013-02-21 05:00:00,
2013-02-21 00:01:00,26.8,14.4,29.97,SW,223,5.0,12.0,59,0.00,,,0.00,0.0,meteohub,2013-02-21 05:01:00,
2013-02-21 00:06:00,26.6,14.2,29.97,West,264,4.0,14.0,59,0.00,,,0.00,0.0,meteohub,2013-02-21 05:06:00,
2013-02-21 00:11:00,26.8,14.4,29.97,WNW,286,4.0,14.0,59,0.00,,,0.00,0.0,meteohub,2013-02-21 05:11:00,
2013-02-21 00:16:00,26.6,14.2,29.97,WSW,248,2.0,14.0,59,0.00,,,0.00,0.0,meteohub,2013-02-21 05:16:00,
2013-02-21 00:21:00,26.6,14.2,29.97,WSW,242,1.0,14.0,59,0.00,,,0.00,0.0,meteohub,2013-02-21 05:21:00,
2013-02-21 00:26:00,26.4,14.4,29.98,NW,311,6.0,11.0,60,0.00,,,0.00,0.0,meteohub,2013-02-21 05:26:00,
2013-02-21 00:31:00,26.6,14.5,29.98,West,278,4.0,13.0,60,0.00,,,0.00,0.0,meteohub,2013-02-21 05:31:00,
2013-02-21 00:36:00,26.6,14.5,29.98,WSW,240,2.0,14.0,60,0.00,,,0.00,0.0,meteohub,2013-02-21 05:36:00,
2013-02-21 00:41:00,26.4,14.4,29.98,West,259,3.0,14.0,60,0.00,,,0.00,0.0,meteohub,2013-02-21 05:41:00,
2013-02-21 00:46:00,26.4,14.7,29.97,WSW,251,6.0,13.0,61,0.00,,,0.00,0.0,meteohub,2013-02-21 05:46:00,
2013-02-21 00:51:00,26.4,14.7,29.97,NNW,336,4.0,13.0,61,0.00,,,0.00,0.0,meteohub,2013-02-21 05:51:00,
2013-02-21 00:57:00,26.4,14.7,29.97,WSW,256,9.0,13.0,61,0.00,,,0.00,0.0,meteohub,2013-02-21 05:57:00,
2013-02-21 01:02:00,26.4,15.1,29.97,NW,311,5.0,10.0,62,0.00,,,0.00,0.0,meteohub,2013-02-21 06:02:00,
2013-02-21 01:07:00,26.4,14.7,29.97,West,265,4.0,10.0,61,0.00,,,0.00,0.0,meteohub,2013-02-21 06:07:00,
2013-02-21 01:12:00,26.4,14.7,29.97,SW,235,6.0,10.0,61,0.00,,,0.00,0.0,meteohub,2013-02-21 06:12:00,
2013-02-21 01:17:00,26.4,15.1,29.98,WSW,256,8.0,13.0,62,0.00,,,0.00,0.0,meteohub,2013-02-21 06:17:00,
2013-02-21 01:22:00,26.6,15.3,29.98,West,278,7.0,13.0,62,0.00,,,0.00,0.0,meteohub,2013-02-21 06:22:00,
2013-02-21 01:27:00,26.6,15.3,29.97,West,266,7.0,13.0,62,0.00,,,0.00,0.0,meteohub,2013-02-21 06:27:00,
2013-02-21 01:32:00,26.6,15.3,29.97,NNW,328,6.0,12.0,62,0.00,,,0.00,0.0,meteohub,2013-02-21 06:32:00,
2013-02-21 01:37:00,26.6,15.3,29.98,NNW,336,5.0,10.0,62,0.00,,,0.00,0.0,meteohub,2013-02-21 06:37:00,
2013-02-21 01:42:00,26.6,15.3,29.97,West,273,4.0,12.0,62,0.00,,,0.00,0.0,meteohub,2013-02-21 06:42:00,
2013-02-21 01:47:00,26.6,15.3,29.97,WSW,243,9.0,12.0,62,0.00,,,0.00,0.0,meteohub,2013-02-21 06:47:00,
2013-02-21 01:52:00,26.4,15.1,29.96,West,260,9.0,12.0,62,0.00,,,0.00,0.0,meteohub,2013-02-21 06:52:00,
2013-02-21 01:57:00,26.4,15.1,29.97,WSW,245,8.0,12.0,62,0.00,,,0.00,0.0,meteohub,2013-02-21 06:57:00,
2013-02-21 02:02:00,26.2,15.1,29.97,SSW,209,4.0,12.0,62,0.00,,,0.00,0.0,meteohub,2013-02-21 07:02:00,
2013-02-21 02:07:00,26.2,15.4,29.96,NW,308,2.0,12.0,63,0.00,,,0.00,0.0,meteohub,2013-02-21 07:07:00,
2013-02-21 02:12:00,26.2,15.4,29.96,West,264,3.0,13.0,63,0.00,,,0.00,0.0,meteohub,2013-02-21 07:12:00,
2013-02-21 02:17:00,26.1,15.3,29.96,WSW,248,6.0,13.0,63,0.00,,,0.00,0.0,meteohub,2013-02-21 07:17:00,
2013-02-21 02:22:00,26.1,15.3,29.97,WSW,241,3.0,13.0,63,0.00,,,0.00,0.0,meteohub,2013-02-21 07:22:00,
2013-02-21 02:27:00,26.1,15.3,29.96,SW,225,2.0,11.0,63,0.00,,,0.00,0.0,meteohub,2013-02-21 07:27:00,
2013-02-21 02:32:00,25.9,15.1,29.96,WSW,254,3.0,11.0,63,0.00,,,0.00,0.0,meteohub,2013-02-21 07:32:00,
2013-02-21 02:37:00,25.7,14.9,29.96,WSW,244,4.0,10.0,63,0.00,,,0.00,0.0,meteohub,2013-02-21 07:37:00,
2013-02-21 02:42:00,25.5,14.7,29.96,SSW,206,1.0,12.0,63,0.00,,,0.00,0.0,meteohub,2013-02-21 07:42:00,
2013-02-21 02:47:00,25.3,14.5,29.97,SW,229,3.0,12.0,63,0.00,,,0.00,0.0,meteohub,2013-02-21 07:47:00,
2013-02-21 02:52:00,25.2,14.4,29.97,SW,221,1.0,10.0,63,0.00,,,0.00,0.0,meteohub,2013-02-21 07:52:00,
2013-02-21 02:57:00,25.2,14.0,29.97,SW,228,3.0,9.0,62,0.00,,,0.00,0.0,meteohub,2013-02-21 07:57:00,
2013-02-21 03:03:00,25.2,14.0,29.97,WSW,251,7.0,9.0,62,0.00,,,0.00,0.0,meteohub,2013-02-21 08:03:00,
2013-02-21 03:08:00,25.2,14.0,29.97,West,271,1.0,11.0,62,0.00,,,0.00,0.0,meteohub,2013-02-21 08:08:00,
2013-02-21 03:13:00,25.0,13.8,29.97,WNW,300,2.0,11.0,62,0.00,,,0.00,0.0,meteohub,2013-02-21 08:13:00,
2013-02-21 03:18:00,24.8,14.0,29.97,West,273,3.0,10.0,63,0.00,,,0.00,0.0,meteohub,2013-02-21 08:18:00,
2013-02-21 03:23:00,24.6,13.8,29.97,SW,218,4.0,10.0,63,0.00,,,0.00,0.0,meteohub,2013-02-21 08:23:00,
2013-02-21 03:28:00,24.6,13.8,29.97,WNW,294,1.0,9.0,63,0.00,,,0.00,0.0,meteohub,2013-02-21 08:28:00,
2013-02-21 03:33:00,24.6,14.2,29.97,WSW,256,4.0,9.0,64,0.00,,,0.00,0.0,meteohub,2013-02-21 08:33:00,
2013-02-21 03:38:00,24.6,13.8,29.96,WSW,238,4.0,8.0,63,0.00,,,0.00,0.0,meteohub,2013-02-21 08:38:00,
2013-02-21 03:43:00,24.6,13.8,29.97,SW,234,3.0,10.0,63,0.00,,,0.00,0.0,meteohub,2013-02-21 08:43:00,
2013-02-21 03:48:00,24.4,13.6,29.97,SW,221,1.0,10.0,63,0.00,,,0.00,0.0,meteohub,2013-02-21 08:48:00,
2013-02-21 03:53:00,24.4,14.0,29.98,West,265,5.0,10.0,64,0.00,,,0.00,0.0,meteohub,2013-02-21 08:53:00,
2013-02-21 03:58:00,24.3,13.8,29.97,West,263,0.0,8.0,64,0.00,,,0.00,0.0,meteohub,2013-02-21 08:58:00,
2013-02-21 04:03:00,24.3,14.2,29.98,SW,226,3.0,6.0,65,0.00,,,0.00,0.0,meteohub,2013-02-21 09:03:00,
2013-02-21 04:08:00,24.1,14.0,29.97,WSW,257,6.0,8.0,65,0.00,,,0.00,0.0,meteohub,2013-02-21 09:08:00,
2013-02-21 04:13:00,23.9,14.2,29.97,West,263,1.0,8.0,66,0.00,,,0.00,0.0,meteohub,2013-02-21 09:13:00,
2013-02-21 04:18:00,23.7,14.0,29.97,West,271,0.0,8.0,66,0.00,,,0.00,0.0,meteohub,2013-02-21 09:18:00,
2013-02-21 04:23:00,23.7,14.0,29.97,WSW,248,4.0,7.0,66,0.00,,,0.00,0.0,meteohub,2013-02-21 09:23:00,
2013-02-21 04:28:00,24.1,14.4,29.97,WSW,257,3.0,8.0,66,0.00,,,0.00,0.0,meteohub,2013-02-21 09:28:00,
2013-02-21 04:33:00,24.1,14.4,29.97,WSW,240,1.0,12.0,66,0.00,,,0.00,0.0,meteohub,2013-02-21 09:33:00,
2013-02-21 04:39:00,24.1,14.4,29.97,West,265,4.0,12.0,66,0.00,,,0.00,0.0,meteohub,2013-02-21 09:39:00,
2013-02-21 04:44:00,24.1,14.7,29.97,WSW,239,2.0,9.0,67,0.00,,,0.00,0.0,meteohub,2013-02-21 09:44:00,
2013-02-21 04:49:00,24.1,14.4,29.97,WNW,300,3.0,9.0,66,0.00,,,0.00,0.0,meteohub,2013-02-21 09:49:00,
2013-02-21 04:54:00,24.1,14.4,29.97,WNW,293,3.0,10.0,66,0.00,,,0.00,0.0,meteohub,2013-02-21 09:54:00,
2013-02-21 04:59:00,24.1,14.4,29.98,WSW,247,2.0,10.0,66,0.00,,,0.00,0.0,meteohub,2013-02-21 09:59:00,
2013-02-21 05:04:00,24.1,15.1,29.97,WNW,287,2.0,9.0,68,0.00,,,0.00,0.0,meteohub,2013-02-21 10:04:00,
2013-02-21 05:09:00,24.3,14.9,29.98,SW,232,6.0,7.0,67,0.00,,,0.00,0.0,meteohub,2013-02-21 10:09:00,
2013-02-21 05:14:00,24.4,15.1,29.98,SSW,202,3.0,7.0,67,0.00,,,0.00,0.0,meteohub,2013-02-21 10:14:00,
2013-02-21 05:19:00,24.4,15.1,29.98,West,271,4.0,8.0,67,0.00,,,0.00,0.0,meteohub,2013-02-21 10:19:00,
2013-02-21 05:24:00,24.4,15.1,29.98,West,281,3.0,8.0,67,0.00,,,0.00,0.0,meteohub,2013-02-21 10:24:00,
2013-02-21 05:29:00,24.6,15.3,29.98,WSW,237,5.0,8.0,67,0.00,,,0.00,0.0,meteohub,2013-02-21 10:29:00,
2013-02-21 05:34:00,25.0,16.0,29.98,SSW,201,4.0,9.0,68,0.00,,,0.00,0.0,meteohub,2013-02-21 10:34:00,
2013-02-21 05:39:00,25.2,16.2,29.98,WNW,287,1.0,9.0,68,0.00,,,0.00,0.0,meteohub,2013-02-21 10:39:00,
2013-02-21 05:44:00,25.5,16.2,29.98,NW,308,4.0,14.0,67,0.00,,,0.00,0.0,meteohub,2013-02-21 10:44:00,
2013-02-21 05:49:00,25.9,16.2,29.98,SW,230,6.0,14.0,66,0.00,,,0.00,0.0,meteohub,2013-02-21 10:49:00,
2013-02-21 05:54:00,25.9,15.8,29.98,NE,46,7.0,14.0,65,0.00,,,0.00,0.0,meteohub,2013-02-21 10:54:00,
2013-02-21 05:59:00,25.9,15.8,29.98,West,265,6.0,15.0,65,0.00,,,0.00,0.0,meteohub,2013-02-21 10:59:00,
2013-02-21 06:04:00,25.9,15.8,29.98,WSW,240,7.0,15.0,65,0.00,,,0.00,0.0,meteohub,2013-02-21 11:04:00,
2013-02-21 06:09:00,25.9,15.8,29.98,WNW,289,3.0,15.0,65,0.00,,,0.00,0.0,meteohub,2013-02-21 11:09:00,
2013-02-21 06:14:00,25.9,15.8,29.98,West,276,2.0,15.0,65,0.00,,,0.00,0.0,meteohub,2013-02-21 11:14:00,
2013-02-21 06:19:00,25.7,15.6,29.98,WNW,302,9.0,15.0,65,0.00,,,0.00,0.0,meteohub,2013-02-21 11:19:00,
2013-02-21 06:24:00,25.9,15.8,29.98,West,276,4.0,14.0,65,0.00,,,0.00,0.0,meteohub,2013-02-21 11:24:00,
2013-02-21 06:29:00,25.9,15.8,29.98,WNW,289,4.0,15.0,65,0.00,,,0.00,0.0,meteohub,2013-02-21 11:29:00,
2013-02-21 06:34:00,25.9,15.4,29.99,NW,317,9.0,18.0,64,0.00,,,0.00,5.0,meteohub,2013-02-21 11:34:00,
2013-02-21 06:39:00,25.9,15.4,29.98,WNW,294,6.0,20.0,64,0.00,,,0.00,7.0,meteohub,2013-02-21 11:39:00,
2013-02-21 06:45:00,26.1,15.3,29.99,WSW,253,8.0,20.0,63,0.00,,,0.00,9.0,meteohub,2013-02-21 11:45:00,
2013-02-21 06:50:00,26.1,15.3,29.99,West,271,2.0,20.0,63,0.00,,,0.00,14.0,meteohub,2013-02-21 11:50:00,
2013-02-21 06:55:00,25.9,15.1,29.99,NNW,329,6.0,14.0,63,0.00,,,0.00,21.0,meteohub,2013-02-21 11:55:00,
2013-02-21 07:00:00,26.1,14.9,29.99,West,263,5.0,17.0,62,0.00,,,0.00,30.0,meteohub,2013-02-21 12:00:00,
2013-02-21 07:05:00,26.1,14.9,29.99,NNE,13,3.0,17.0,62,0.00,,,0.00,40.0,meteohub,2013-02-21 12:05:00,
2013-02-21 07:10:00,26.1,14.9,29.99,SW,233,2.0,17.0,62,0.00,,,0.00,44.0,meteohub,2013-02-21 12:10:00,
2013-02-21 07:15:00,26.1,14.9,29.99,WNW,285,6.0,17.0,62,0.00,,,0.00,46.0,meteohub,2013-02-21 12:15:00,
2013-02-21 07:20:00,26.2,15.1,29.99,WSW,248,3.0,14.0,62,0.00,,,0.00,44.0,meteohub,2013-02-21 12:20:00,
2013-02-21 07:25:00,26.2,15.1,29.99,WSW,253,5.0,13.0,62,0.00,,,0.00,46.0,meteohub,2013-02-21 12:25:00,
2013-02-21 07:30:00,26.2,14.5,29.99,West,269,4.0,11.0,61,0.00,,,0.00,44.0,meteohub,2013-02-21 12:30:00,
2013-02-21 07:35:00,26.2,14.5,29.99,NW,317,5.0,9.0,61,0.00,,,0.00,62.0,meteohub,2013-02-21 12:35:00,
2013-02-21 07:40:00,26.4,14.7,29.99,West,273,8.0,13.0,61,0.00,,,0.00,70.0,meteohub,2013-02-21 12:40:00,
2013-02-21 07:45:00,26.6,14.5,30.00,WNW,302,4.0,19.0,60,0.00,,,0.00,95.0,meteohub,2013-02-21 12:45:00,
2013-02-21 07:50:00,26.8,14.7,30.00,SW,225,1.0,19.0,60,0.00,,,0.00,102.0,meteohub,2013-02-21 12:50:00,
2013-02-21 07:55:00,27.0,14.9,29.99,West,281,7.0,19.0,60,0.00,,,0.00,137.0,meteohub,2013-02-21 12:55:00,
2013-02-21 08:00:00,27.0,14.9,29.99,SW,236,6.0,15.0,60,0.00,,,0.00,130.0,meteohub,2013-02-21 13:00:00,
2013-02-21 08:05:00,27.1,14.7,29.99,West,280,10.0,14.0,59,0.00,,,0.00,209.0,meteohub,2013-02-21 13:05:00,
2013-02-21 08:10:00,27.5,15.1,29.99,WSW,242,5.0,14.0,59,0.00,,,0.00,225.0,meteohub,2013-02-21 13:10:00,
2013-02-21 08:15:00,27.9,15.1,30.00,SW,227,3.0,11.0,58,0.00,,,0.00,241.0,meteohub,2013-02-21 13:15:00,
2013-02-21 08:20:00,27.9,15.1,30.00,WNW,294,6.0,11.0,58,0.00,,,0.00,257.0,meteohub,2013-02-21 13:20:00,
2013-02-21 08:25:00,28.0,15.3,30.00,WSW,238,5.0,14.0,58,0.00,,,0.00,272.0,meteohub,2013-02-21 13:25:00,
2013-02-21 08:30:00,28.0,15.3,29.99,NW,309,8.0,15.0,58,0.00,,,0.00,290.0,meteohub,2013-02-21 13:30:00,
2013-02-21 08:35:00,28.2,15.3,29.99,WSW,252,7.0,15.0,58,0.00,,,0.00,304.0,meteohub,2013-02-21 13:35:00,
2013-02-21 08:40:00,28.2,14.9,29.98,WSW,251,4.0,15.0,57,0.00,,,0.00,318.0,meteohub,2013-02-21 13:40:00,
2013-02-21 08:45:00,28.4,15.1,29.98,WSW,244,2.0,16.0,57,0.00,,,0.00,332.0,meteohub,2013-02-21 13:45:00,
2013-02-21 08:50:00,28.4,14.7,29.99,WSW,250,7.0,17.0,56,0.00,,,0.00,357.0,meteohub,2013-02-21 13:50:00,
2013-02-21 08:55:00,28.4,14.7,29.99,SW,236,7.0,17.0,56,0.00,,,0.00,455.0,meteohub,2013-02-21 13:55:00,
2013-02-21 09:00:00,28.6,14.5,29.98,SSW,207,2.0,17.0,55,0.00,,,0.00,473.0,meteohub,2013-02-21 14:00:00,
2013-02-21 09:05:00,28.2,14.2,29.98,West,268,6.0,17.0,55,0.00,,,0.00,171.0,meteohub,2013-02-21 14:05:00,
2013-02-21 09:11:00,28.2,14.2,29.99,NW,304,10.0,18.0,55,0.00,,,0.00,501.0,meteohub,2013-02-21 14:11:00,
2013-02-21 09:16:00,28.6,14.5,29.98,NW,305,7.0,18.0,55,0.00,,,0.00,561.0,meteohub,2013-02-21 14:16:00,
2013-02-21 09:21:00,28.4,14.4,29.97,WSW,256,8.0,21.0,55,0.00,,,0.00,146.0,meteohub,2013-02-21 14:21:00,
2013-02-21 09:26:00,28.2,14.5,29.97,West,270,2.0,21.0,56,0.00,,,0.00,272.0,meteohub,2013-02-21 14:26:00,
2013-02-21 09:31:00,28.6,14.5,29.98,WNW,295,4.0,16.0,55,0.00,,,0.00,464.0,meteohub,2013-02-21 14:31:00,
2013-02-21 09:36:00,28.9,14.7,29.97,WNW,283,4.0,18.0,55,0.00,,,0.00,473.0,meteohub,2013-02-21 14:36:00,
2013-02-21 09:41:00,28.9,14.4,29.97,West,279,15.0,19.0,54,0.00,,,0.00,483.0,meteohub,2013-02-21 14:41:00,
2013-02-21 09:46:00,29.5,15.3,29.97,WSW,237,4.0,19.0,55,0.00,,,0.00,496.0,meteohub,2013-02-21 14:46:00,
2013-02-21 09:51:00,29.8,15.3,29.97,WSW,250,4.0,19.0,54,0.00,,,0.00,506.0,meteohub,2013-02-21 14:51:00,
2013-02-21 09:56:00,29.5,14.5,29.97,WSW,238,9.0,16.0,53,0.00,,,0.00,520.0,meteohub,2013-02-21 14:56:00,
2013-02-21 10:01:00,29.7,15.1,29.97,WNW,285,6.0,18.0,54,0.00,,,0.00,531.0,meteohub,2013-02-21 15:01:00,
2013-02-21 10:06:00,29.5,14.5,29.97,NW,313,16.0,22.0,53,0.00,,,0.00,543.0,meteohub,2013-02-21 15:06:00,
2013-02-21 10:11:00,29.5,14.5,29.97,WNW,282,6.0,22.0,53,0.00,,,0.00,550.0,meteohub,2013-02-21 15:11:00,
2013-02-21 10:16:00,29.7,15.1,29.97,WNW,292,10.0,22.0,54,0.00,,,0.00,561.0,meteohub,2013-02-21 15:16:00,
2013-02-21 10:21:00,29.8,14.7,29.96,West,267,13.0,21.0,53,0.00,,,0.00,571.0,meteohub,2013-02-21 15:21:00,
2013-02-21 10:26:00,30.0,14.9,29.96,WSW,237,3.0,22.0,53,0.00,,,0.00,580.0,meteohub,2013-02-21 15:26:00,
2013-02-21 10:31:00,30.4,15.3,29.97,West,273,7.0,22.0,53,0.00,,,0.00,589.0,meteohub,2013-02-21 15:31:00,
2013-02-21 10:36:00,30.6,15.4,29.97,West,263,8.0,17.0,53,0.00,,,0.00,599.0,meteohub,2013-02-21 15:36:00,
2013-02-21 10:41:00,30.4,15.3,29.97,West,276,7.0,18.0,53,0.00,,,0.00,606.0,meteohub,2013-02-21 15:41:00,
2013-02-21 10:46:00,30.0,14.9,29.98,WSW,250,12.0,19.0,53,0.00,,,0.00,615.0,meteohub,2013-02-21 15:46:00,
2013-02-21 10:51:00,30.4,15.8,29.97,SSW,207,3.0,20.0,54,0.00,,,0.00,619.0,meteohub,2013-02-21 15:51:00,
2013-02-21 10:56:00,30.7,15.6,29.97,WSW,257,12.0,20.0,53,0.00,,,0.00,626.0,meteohub,2013-02-21 15:56:00,
2013-02-21 11:01:00,30.7,15.6,29.97,WSW,242,6.0,19.0,53,0.00,,,0.00,633.0,meteohub,2013-02-21 16:01:00,
2013-02-21 11:06:00,30.6,15.4,29.97,West,281,6.0,19.0,53,0.00,,,0.00,638.0,meteohub,2013-02-21 16:06:00,
2013-02-21 11:11:00,30.6,15.4,29.97,WSW,253,9.0,19.0,53,0.00,,,0.00,643.0,meteohub,2013-02-21 16:11:00,
2013-02-21 11:16:00,30.6,15.4,29.96,WNW,298,3.0,19.0,53,0.00,,,0.00,652.0,meteohub,2013-02-21 16:16:00,
2013-02-21 11:21:00,30.9,15.4,29.96,NW,310,9.0,19.0,52,0.00,,,0.00,654.0,meteohub,2013-02-21 16:21:00,
2013-02-21 11:26:00,30.9,15.4,29.97,West,267,9.0,19.0,52,0.00,,,0.00,659.0,meteohub,2013-02-21 16:26:00,
2013-02-21 11:31:00,31.1,16.0,29.97,NW,311,7.0,26.0,53,0.00,,,0.00,663.0,meteohub,2013-02-21 16:31:00,
2013-02-21 11:36:00,31.5,15.8,29.97,WNW,291,6.0,26.0,52,0.00,,,0.00,668.0,meteohub,2013-02-21 16:36:00,
2013-02-21 11:41:00,31.6,16.0,29.98,WSW,256,3.0,26.0,52,0.00,,,0.00,670.0,meteohub,2013-02-21 16:41:00,
2013-02-21 11:46:00,31.8,16.2,29.97,WSW,254,5.0,16.0,52,0.00,,,0.00,673.0,meteohub,2013-02-21 16:46:00,
2013-02-21 11:51:00,32.2,16.2,29.97,WSW,250,5.0,15.0,51,0.00,,,0.00,680.0,meteohub,2013-02-21 16:51:00,
2013-02-21 11:56:00,32.2,16.2,29.97,NNW,337,4.0,17.0,51,0.00,,,0.00,671.0,meteohub,2013-02-21 16:56:00,
2013-02-21 12:01:00,32.2,16.2,29.97,WSW,248,6.0,21.0,51,0.00,,,0.00,708.0,meteohub,2013-02-21 17:01:00,
2013-02-21 12:06:00,32.5,16.3,29.96,WSW,245,4.0,21.0,51,0.00,,,0.00,698.0,meteohub,2013-02-21 17:06:00,
2013-02-21 12:12:00,32.7,16.5,29.97,NW,309,8.0,19.0,51,0.00,,,0.00,673.0,meteohub,2013-02-21 17:12:00,
2013-02-21 12:17:00,32.5,16.0,29.96,WNW,284,8.0,20.0,50,0.00,,,0.00,670.0,meteohub,2013-02-21 17:17:00,
2013-02-21 12:22:00,32.4,15.8,29.96,NNE,24,7.0,20.0,50,0.00,,,0.00,682.0,meteohub,2013-02-21 17:22:00,
2013-02-21 12:27:00,32.5,16.3,29.95,West,266,11.0,20.0,51,0.00,,,0.00,682.0,meteohub,2013-02-21 17:27:00,
2013-02-21 12:32:00,33.3,16.7,29.95,SW,225,3.0,19.0,50,0.00,,,0.00,677.0,meteohub,2013-02-21 17:32:00,
2013-02-21 12:37:00,33.3,16.2,29.94,West,273,8.0,20.0,49,0.00,,,0.00,675.0,meteohub,2013-02-21 17:37:00,
2013-02-21 12:42:00,33.3,16.7,29.95,NW,315,7.0,20.0,50,0.00,,,0.00,671.0,meteohub,2013-02-21 17:42:00,
2013-02-21 12:47:00,33.3,16.2,29.95,WSW,256,14.0,20.0,49,0.00,,,0.00,670.0,meteohub,2013-02-21 17:47:00,
2013-02-21 12:51:00,33.1,16.0,29.95,West,271,10.0,20.0,49,0.00,,,0.00,666.0,meteohub,2013-02-21 17:51:00,
2013-02-21 12:57:00,33.3,16.7,29.95,WNW,287,6.0,20.0,50,0.00,,,0.00,663.0,meteohub,2013-02-21 17:57:00,
2013-02-21 13:02:00,33.6,16.5,29.95,NNW,331,6.0,20.0,49,0.00,,,0.00,659.0,meteohub,2013-02-21 18:02:00,
2013-02-21 13:07:00,33.6,16.9,29.94,WSW,255,3.0,15.0,50,0.00,,,0.00,652.0,meteohub,2013-02-21 18:07:00,
2013-02-21 13:12:00,33.4,15.8,29.94,WNW,285,2.0,18.0,48,0.00,,,0.00,652.0,meteohub,2013-02-21 18:12:00,
2013-02-21 13:17:00,33.4,16.3,29.94,SW,215,10.0,20.0,49,0.00,,,0.00,643.0,meteohub,2013-02-21 18:17:00,
2013-02-21 13:22:00,33.6,16.0,29.94,WNW,283,13.0,20.0,48,0.00,,,0.00,636.0,meteohub,2013-02-21 18:22:00,
2013-02-21 13:27:00,33.6,16.5,29.94,NW,306,5.0,20.0,49,0.00,,,0.00,631.0,meteohub,2013-02-21 18:27:00,
2013-02-21 13:32:00,34.0,16.3,29.94,WNW,284,8.0,21.0,48,0.00,,,0.00,628.0,meteohub,2013-02-21 18:32:00,
2013-02-21 13:37:00,34.2,17.1,29.94,WSW,246,6.0,21.0,49,0.00,,,0.00,621.0,meteohub,2013-02-21 18:37:00,
2013-02-21 13:42:00,34.3,17.2,29.94,NNE,15,3.0,17.0,49,0.00,,,0.00,610.0,meteohub,2013-02-21 18:42:00,
2013-02-21 13:47:00,34.5,17.2,29.94,WSW,250,4.0,17.0,49,0.00,,,0.00,601.0,meteohub,2013-02-21 18:47:00,
2013-02-21 13:52:00,34.9,17.6,29.94,WNW,288,2.0,17.0,49,0.00,,,0.00,592.0,meteohub,2013-02-21 18:52:00,
2013-02-21 13:57:00,34.9,17.6,29.94,West,280,5.0,20.0,49,0.00,,,0.00,587.0,meteohub,2013-02-21 18:57:00,
2013-02-21 14:02:00,35.1,17.8,29.94,WSW,252,7.0,20.0,49,0.00,,,0.00,577.0,meteohub,2013-02-21 19:02:00,
2013-02-21 14:07:00,34.9,17.2,29.94,WNW,299,13.0,20.0,48,0.00,,,0.00,563.0,meteohub,2013-02-21 19:07:00,
2013-02-21 14:12:00,35.1,17.4,29.95,WSW,257,10.0,20.0,48,0.00,,,0.00,559.0,meteohub,2013-02-21 19:12:00,
2013-02-21 14:17:00,34.9,16.7,29.95,WNW,302,11.0,20.0,47,0.00,,,0.00,550.0,meteohub,2013-02-21 19:17:00,
2013-02-21 14:22:00,34.9,17.2,29.95,West,273,10.0,19.0,48,0.00,,,0.00,538.0,meteohub,2013-02-21 19:22:00,
2013-02-21 14:27:00,35.1,17.4,29.95,NE,41,7.0,19.0,48,0.00,,,0.00,527.0,meteohub,2013-02-21 19:27:00,
2013-02-21 14:32:00,35.1,17.8,29.95,WNW,290,6.0,19.0,49,0.00,,,0.00,517.0,meteohub,2013-02-21 19:32:00,
2013-02-21 14:37:00,35.1,17.8,29.95,NNW,331,4.0,18.0,49,0.00,,,0.00,504.0,meteohub,2013-02-21 19:37:00,
2013-02-21 14:42:00,35.1,17.4,29.95,WSW,256,9.0,20.0,48,0.00,,,0.00,494.0,meteohub,2013-02-21 19:42:00,
2013-02-21 14:47:00,35.1,17.4,29.96,WNW,288,13.0,20.0,48,0.00,,,0.00,482.0,meteohub,2013-02-21 19:47:00,
2013-02-21 14:52:00,35.2,18.0,29.96,NW,315,6.0,20.0,49,0.00,,,0.00,468.0,meteohub,2013-02-21 19:52:00,
2013-02-21 14:57:00,35.1,17.8,29.96,West,278,10.0,19.0,49,0.00,,,0.00,455.0,meteohub,2013-02-21 19:57:00,
2013-02-21 15:02:00,35.1,17.8,29.96,SSE,166,5.0,17.0,49,0.00,,,0.00,388.0,meteohub,2013-02-21 20:02:00,
2013-02-21 15:07:00,35.1,17.8,29.97,North,355,7.0,17.0,49,0.00,,,0.00,339.0,meteohub,2013-02-21 20:07:00,
2013-02-21 15:12:00,35.1,17.8,29.97,NNW,342,5.0,16.0,49,0.00,,,0.00,248.0,meteohub,2013-02-21 20:12:00,
2013-02-21 15:17:00,34.9,18.1,29.97,West,277,5.0,27.0,50,0.00,,,0.00,285.0,meteohub,2013-02-21 20:17:00,
2013-02-21 15:22:00,34.7,18.5,29.97,WNW,298,10.0,27.0,51,0.00,,,0.00,193.0,meteohub,2013-02-21 20:22:00,
2013-02-21 15:27:00,34.7,18.5,29.97,West,265,2.0,17.0,51,0.00,,,0.00,193.0,meteohub,2013-02-21 20:27:00,
2013-02-21 15:32:00,34.9,19.0,29.97,NNW,333,2.0,17.0,52,0.00,,,0.00,255.0,meteohub,2013-02-21 20:32:00,
2013-02-21 15:37:00,34.9,18.1,29.97,West,259,6.0,20.0,50,0.00,,,0.00,267.0,meteohub,2013-02-21 20:37:00,
2013-02-21 15:42:00,34.5,19.2,29.98,SSW,195,3.0,20.0,53,0.00,,,0.00,271.0,meteohub,2013-02-21 20:42:00,
2013-02-21 15:47:00,34.3,19.0,29.99,NE,43,4.0,20.0,53,0.00,,,0.00,193.0,meteohub,2013-02-21 20:47:00,
2013-02-21 15:52:00,34.2,18.9,29.98,West,277,7.0,20.0,53,0.00,,,0.00,134.0,meteohub,2013-02-21 20:52:00,
2013-02-21 15:57:00,34.2,19.2,29.98,WSW,254,5.0,21.0,54,0.00,,,0.00,74.0,meteohub,2013-02-21 20:57:00,
2013-02-21 16:02:00,34.0,19.0,29.99,West,261,6.0,21.0,54,0.00,,,0.00,70.0,meteohub,2013-02-21 21:02:00,
2013-02-21 16:07:00,34.0,19.0,29.99,NW,320,11.0,20.0,54,0.00,,,0.00,104.0,meteohub,2013-02-21 21:07:00,
2013-02-21 16:12:00,34.0,19.6,29.99,West,278,4.0,20.0,55,0.00,,,0.00,72.0,meteohub,2013-02-21 21:12:00,
2013-02-21 16:17:00,33.8,19.4,29.99,North,351,6.0,20.0,55,0.00,,,0.00,33.0,meteohub,2013-02-21 21:17:00,
2013-02-21 16:22:00,33.6,19.2,29.99,NW,308,5.0,19.0,55,0.00,,,0.00,54.0,meteohub,2013-02-21 21:22:00,
2013-02-21 16:27:00,33.4,19.0,29.99,North,355,5.0,19.0,55,0.00,,,0.00,32.0,meteohub,2013-02-21 21:27:00,
2013-02-21 16:32:00,33.4,19.4,30.00,WNW,292,16.0,19.0,56,0.00,,,0.00,33.0,meteohub,2013-02-21 21:32:00,
2013-02-21 16:37:00,33.3,18.9,30.00,West,269,6.0,19.0,55,0.00,,,0.00,58.0,meteohub,2013-02-21 21:37:00,
2013-02-21 16:42:00,33.1,19.0,30.01,North,355,6.0,21.0,56,0.00,,,0.00,32.0,meteohub,2013-02-21 21:42:00,
2013-02-21 16:47:00,32.9,19.4,30.01,WSW,237,5.0,21.0,57,0.00,,,0.00,25.0,meteohub,2013-02-21 21:47:00,
2013-02-21 16:52:00,32.7,19.2,30.02,SSE,159,3.0,14.0,57,0.00,,,0.00,28.0,meteohub,2013-02-21 21:52:00,
2013-02-21 16:57:00,32.5,19.4,30.03,North,355,3.0,16.0,58,0.00,,,0.00,25.0,meteohub,2013-02-21 21:57:00,
2013-02-21 17:02:00,32.5,19.4,30.03,West,267,4.0,17.0,58,0.00,,,0.00,21.0,meteohub,2013-02-21 22:02:00,
2013-02-21 17:07:00,32.4,19.2,30.03,NW,325,8.0,17.0,58,0.00,,,0.00,18.0,meteohub,2013-02-21 22:07:00,
2013-02-21 17:12:00,32.4,18.9,30.04,NW,320,6.0,17.0,57,0.00,,,0.00,14.0,meteohub,2013-02-21 22:12:00,
2013-02-21 17:17:00,32.2,19.9,30.05,WNW,296,9.0,17.0,60,0.00,,,0.00,12.0,meteohub,2013-02-21 22:17:00,
2013-02-21 17:22:00,32.0,18.9,30.05,WNW,303,6.0,16.0,58,0.00,,,0.00,11.0,meteohub,2013-02-21 22:22:00,
2013-02-21 17:27:00,31.8,18.3,30.05,WNW,286,3.0,18.0,57,0.00,,,0.00,7.0,meteohub,2013-02-21 22:27:00,
2013-02-21 17:32:00,31.6,18.1,30.05,WNW,288,4.0,18.0,57,0.00,,,0.00,5.0,meteohub,2013-02-21 22:32:00,
2013-02-21 17:37:00,31.5,18.0,30.06,NNE,17,4.0,18.0,57,0.00,,,0.00,0.0,meteohub,2013-02-21 22:37:00,
2013-02-21 17:41:00,31.5,18.3,30.06,North,355,4.0,16.0,58,0.00,,,0.00,0.0,meteohub,2013-02-21 22:41:00,
2013-02-21 17:47:00,31.3,19.4,30.07,North,11,8.0,16.0,61,0.00,,,0.00,0.0,meteohub,2013-02-21 22:47:00,
2013-02-21 17:52:00,31.3,19.4,30.06,NW,320,14.0,18.0,61,0.00,,,0.00,0.0,meteohub,2013-02-21 22:52:00,
2013-02-21 17:57:00,30.9,19.0,30.07,WSW,245,4.0,18.0,61,0.00,,,0.00,0.0,meteohub,2013-02-21 22:57:00,
2013-02-21 18:02:00,30.9,18.3,30.08,NNE,13,4.0,18.0,59,0.00,,,0.00,0.0,meteohub,2013-02-21 23:02:00,
2013-02-21 18:07:00,30.7,18.1,30.08,NNE,14,6.0,19.0,59,0.00,,,0.00,0.0,meteohub,2013-02-21 23:07:00,
2013-02-21 18:12:00,30.6,18.0,30.08,North,349,8.0,19.0,59,0.00,,,0.00,0.0,meteohub,2013-02-21 23:12:00,
2013-02-21 18:17:00,30.4,17.8,30.08,NW,310,14.0,19.0,59,0.00,,,0.00,0.0,meteohub,2013-02-21 23:17:00,
2013-02-21 18:22:00,30.0,17.4,30.09,SSW,207,7.0,18.0,59,0.00,,,0.00,0.0,meteohub,2013-02-21 23:22:00,
2013-02-21 18:27:00,30.0,17.4,30.09,WNW,300,14.0,19.0,59,0.00,,,0.00,0.0,meteohub,2013-02-21 23:27:00,
2013-02-21 18:32:00,29.8,18.0,30.10,NNW,333,8.0,19.0,61,0.00,,,0.00,0.0,meteohub,2013-02-21 23:32:00,
2013-02-21 18:37:00,29.7,18.3,30.10,North,5,9.0,17.0,62,0.00,,,0.00,0.0,meteohub,2013-02-21 23:37:00,
2013-02-21 18:42:00,29.5,17.8,30.11,NW,316,1.0,19.0,61,0.00,,,0.00,0.0,meteohub,2013-02-21 23:42:00,
2013-02-21 18:47:00,29.5,18.1,30.11,NNE,15,11.0,19.0,62,0.00,,,0.00,0.0,meteohub,2013-02-21 23:47:00,
2013-02-21 18:52:00,29.3,18.0,30.11,NW,322,6.0,19.0,62,0.00,,,0.00,0.0,meteohub,2013-02-21 23:52:00,
2013-02-21 18:57:00,29.1,17.8,30.12,NE,46,6.0,19.0,62,0.00,,,0.00,0.0,meteohub,2013-02-21 23:57:00,
2013-02-21 19:02:00,28.9,17.2,30.12,North,0,6.0,19.0,61,0.00,,,0.00,0.0,meteohub,2013-02-22 00:02:00,
2013-02-21 19:07:00,28.8,17.8,30.12,NNE,29,6.0,22.0,63,0.00,,,0.00,0.0,meteohub,2013-02-22 00:07:00,
2013-02-21 19:12:00,28.8,17.8,30.12,NW,322,7.0,22.0,63,0.00,,,0.00,0.0,meteohub,2013-02-22 00:12:00,
2013-02-21 19:17:00,28.6,17.6,30.12,WNW,286,10.0,22.0,63,0.00,,,0.00,0.0,meteohub,2013-02-22 00:17:00,
2013-02-21 19:22:00,28.6,17.6,30.12,NNE,20,6.0,18.0,63,0.00,,,0.00,0.0,meteohub,2013-02-22 00:22:00,
2013-02-21 19:27:00,28.2,16.9,30.13,NNE,19,5.0,18.0,62,0.00,,,0.00,0.0,meteohub,2013-02-22 00:27:00,
2013-02-21 19:32:00,28.0,17.1,30.13,SSW,196,4.0,19.0,63,0.00,,,0.00,0.0,meteohub,2013-02-22 00:32:00,
2013-02-21 19:37:00,28.0,16.7,30.14,WNW,300,8.0,19.0,62,0.00,,,0.00,0.0,meteohub,2013-02-22 00:37:00,
2013-02-21 19:42:00,27.9,17.2,30.14,West,273,4.0,18.0,64,0.00,,,0.00,0.0,meteohub,2013-02-22 00:42:00,
2013-02-21 19:47:00,27.9,17.6,30.15,NW,325,13.0,16.0,65,0.00,,,0.00,0.0,meteohub,2013-02-22 00:47:00,
2013-02-21 19:52:00,27.9,17.2,30.15,NNE,13,8.0,16.0,64,0.00,,,0.00,0.0,meteohub,2013-02-22 00:52:00,
2013-02-21 19:57:00,27.9,18.0,30.15,NNE,22,3.0,17.0,66,0.00,,,0.00,0.0,meteohub,2013-02-22 00:57:00,
2013-02-21 20:02:00,27.9,17.6,30.14,NNW,342,6.0,17.0,65,0.00,,,0.00,0.0,meteohub,2013-02-22 01:02:00,
2013-02-21 20:07:00,27.9,17.2,30.16,West,274,13.0,20.0,64,0.00,,,0.00,0.0,meteohub,2013-02-22 01:07:00,
2013-02-21 20:12:00,28.0,17.4,30.16,North,9,5.0,20.0,64,0.00,,,0.00,0.0,meteohub,2013-02-22 01:12:00,
2013-02-21 20:17:00,28.0,17.4,30.17,NW,323,2.0,18.0,64,0.00,,,0.00,0.0,meteohub,2013-02-22 01:17:00,
2013-02-21 20:22:00,28.0,17.4,30.17,NW,311,9.0,18.0,64,0.00,,,0.00,0.0,meteohub,2013-02-22 01:22:00,
2013-02-21 20:27:00,28.0,17.1,30.17,North,11,3.0,18.0,63,0.00,,,0.00,0.0,meteohub,2013-02-22 01:27:00,
2013-02-21 20:31:00,28.0,18.1,30.18,North,10,6.0,17.0,66,0.00,,,0.00,0.0,meteohub,2013-02-22 01:31:00,
2013-02-21 20:37:00,28.0,17.8,30.18,North,5,8.0,16.0,65,0.00,,,0.00,0.0,meteohub,2013-02-22 01:37:00,
2013-02-21 20:42:00,28.0,17.8,30.19,NNW,328,5.0,16.0,65,0.00,,,0.00,0.0,meteohub,2013-02-22 01:42:00,
2013-02-21 20:47:00,28.0,17.8,30.20,NW,325,7.0,16.0,65,0.00,,,0.00,0.0,meteohub,2013-02-22 01:47:00,
2013-02-21 20:52:00,28.0,18.1,30.20,NE,45,6.0,16.0,66,0.00,,,0.00,0.0,meteohub,2013-02-22 01:52:00,
2013-02-21 20:57:00,28.2,18.0,30.20,NNW,329,7.0,16.0,65,0.00,,,0.00,0.0,meteohub,2013-02-22 01:57:00,
2013-02-21 21:02:00,28.2,18.0,30.21,North,350,11.0,19.0,65,0.00,,,0.00,0.0,meteohub,2013-02-22 02:02:00,
2013-02-21 21:07:00,28.2,18.0,30.21,North,0,5.0,19.0,65,0.00,,,0.00,0.0,meteohub,2013-02-22 02:07:00,
2013-02-21 21:12:00,28.2,18.0,30.22,NNE,17,4.0,19.0,65,0.00,,,0.00,0.0,meteohub,2013-02-22 02:12:00,
2013-02-21 21:17:00,28.2,18.0,30.21,NW,319,5.0,17.0,65,0.00,,,0.00,0.0,meteohub,2013-02-22 02:17:00,
2013-02-21 21:22:00,28.2,18.0,30.22,NW,324,9.0,15.0,65,0.00,,,0.00,0.0,meteohub,2013-02-22 02:22:00,
2013-02-21 21:27:00,28.2,18.0,30.22,WNW,293,9.0,16.0,65,0.00,,,0.00,0.0,meteohub,2013-02-22 02:27:00,
2013-02-21 21:32:00,28.2,18.3,30.23,West,277,9.0,16.0,66,0.00,,,0.00,0.0,meteohub,2013-02-22 02:32:00,
2013-02-21 21:37:00,28.2,18.0,30.23,NNW,334,9.0,16.0,65,0.00,,,0.00,0.0,meteohub,2013-02-22 02:37:00,
2013-02-21 21:42:00,28.2,18.3,30.22,WNW,292,6.0,15.0,66,0.00,,,0.00,0.0,meteohub,2013-02-22 02:42:00,
2013-02-21 21:47:00,28.2,18.7,30.23,NNW,343,12.0,16.0,67,0.00,,,0.00,0.0,meteohub,2013-02-22 02:47:00,
2013-02-21 21:52:00,28.2,18.7,30.23,NE,42,8.0,16.0,67,0.00,,,0.00,0.0,meteohub,2013-02-22 02:52:00,
2013-02-21 21:57:00,28.4,18.5,30.23,North,355,3.0,17.0,66,0.00,,,0.00,0.0,meteohub,2013-02-22 02:57:00,
2013-02-21 22:02:00,28.2,18.3,30.23,NNW,348,3.0,18.0,66,0.00,,,0.00,0.0,meteohub,2013-02-22 03:02:00,
2013-02-21 22:07:00,28.4,19.2,30.24,NW,320,9.0,18.0,68,0.00,,,0.00,0.0,meteohub,2013-02-22 03:07:00,
2013-02-21 22:12:00,28.4,19.6,30.24,NNW,348,11.0,16.0,69,0.00,,,0.00,0.0,meteohub,2013-02-22 03:12:00,
2013-02-21 22:17:00,28.2,19.0,30.24,North,355,8.0,16.0,68,0.00,,,0.00,0.0,meteohub,2013-02-22 03:17:00,
2013-02-21 22:22:00,28.2,18.7,30.25,NNW,339,15.0,16.0,67,0.00,,,0.00,0.0,meteohub,2013-02-22 03:22:00,
2013-02-21 22:27:00,28.2,19.4,30.25,NNW,333,10.0,16.0,69,0.00,,,0.00,0.0,meteohub,2013-02-22 03:27:00,
2013-02-21 22:32:00,28.4,19.6,30.25,NNE,24,4.0,17.0,69,0.00,,,0.00,0.0,meteohub,2013-02-22 03:32:00,
2013-02-21 22:37:00,28.2,19.0,30.25,NNW,340,5.0,17.0,68,0.00,,,0.00,0.0,meteohub,2013-02-22 03:37:00,
2013-02-21 22:42:00,28.4,19.9,30.25,North,355,6.0,17.0,70,0.00,,,0.00,0.0,meteohub,2013-02-22 03:42:00,
2013-02-21 22:47:00,28.4,19.6,30.26,NNE,15,5.0,18.0,69,0.00,,,0.00,0.0,meteohub,2013-02-22 03:47:00,
2013-02-21 22:52:00,28.4,19.6,30.26,NW,325,7.0,18.0,69,0.00,,,0.00,0.0,meteohub,2013-02-22 03:52:00,
2013-02-21 22:57:00,28.4,19.9,30.27,NNW,331,2.0,18.0,70,0.00,,,0.00,0.0,meteohub,2013-02-22 03:57:00,
2013-02-21 23:02:00,28.4,19.9,30.26,North,355,11.0,15.0,70,0.00,,,0.00,0.0,meteohub,2013-02-22 04:02:00,
2013-02-21 23:07:00,28.6,20.3,30.26,NW,322,7.0,15.0,71,0.00,,,0.00,0.0,meteohub,2013-02-22 04:07:00,
2013-02-21 23:12:00,28.6,20.1,30.26,North,5,9.0,15.0,70,0.00,,,0.00,0.0,meteohub,2013-02-22 04:12:00,
2013-02-21 23:17:00,28.6,20.3,30.26,North,5,4.0,15.0,71,0.00,,,0.00,0.0,meteohub,2013-02-22 04:17:00,
2013-02-21 23:22:00,28.6,20.3,30.27,NNE,12,4.0,14.0,71,0.00,,,0.00,0.0,meteohub,2013-02-22 04:22:00,
2013-02-21 23:27:00,28.6,20.1,30.27,NW,311,5.0,14.0,70,0.00,,,0.00,0.0,meteohub,2013-02-22 04:27:00,
2013-02-21 23:32:00,28.6,20.1,30.27,NW,311,8.0,15.0,70,0.00,,,0.00,0.0,meteohub,2013-02-22 04:32:00,
2013-02-21 23:37:00,28.6,20.3,30.27,NNE,15,3.0,15.0,71,0.00,,,0.00,0.0,meteohub,2013-02-22 04:37:00,
2013-02-21 23:42:00,28.6,20.3,30.27,North,5,4.0,18.0,71,0.00,,,0.00,0.0,meteohub,2013-02-22 04:42:00,
2013-02-21 23:47:00,28.6,20.3,30.27,NNW,340,4.0,18.0,71,0.00,,,0.00,0.0,meteohub,2013-02-22 04:47:00,
2013-02-21 23:52:00,28.6,20.3,30.28,NNE,19,11.0,18.0,71,0.00,,,0.00,0.0,meteohub,2013-02-22 04:52:00,
2013-02-21 23:57:00,28.6,20.3,30.28,NNE,25,6.0,15.0,71,0.00,,,0.00,0.0,meteohub,2013-02-22 04:57:00,